Flag for Germany Weather past 2 weeks in Gross-Gerau, Hesse, Germany

Now
63 °F

Sunny.


Feels Like: 63 °F
Forecast: 54 / 65 °F
Wind: 3 mph from North

Location: Frankfurt-M-Flughafen Airport

Current Time: May 24, 2015 at 10:20:04 PM

Latest Report: May 24, 2015 at 9:50 PM


Visibility: 10 mi

Pressure: 30.01 "Hg

Humidity: 68%

Dew point: 52 °F

Location of Gross-GerauLocation

Historic Weather in Gross-Gerau — Graph

°F

Gross-Gerau temperature yesterday

Maximum temperature yesterday: 70 °F (at 3:50 PM)
Minimum temperature yesterday: 57 °F (at 12:20 AM)
Average temperature yesterday: 63 °F

Past Weeks' High & Low Weather Summary

 TemperatureHumidityPressure
High84 °F (May 12, 4:20 PM)94% (May 9, 9:20 PM)30.33 "Hg (May 9, 9:20 PM)
Low39 °F (May 22, 4:50 AM)23% (May 18, 3:20 PM)29.68 "Hg (May 18, 7:20 PM)
Average59 °F58%30.08 "Hg
* Reported May 9 9:20 PM — May 24 9:20 PM, Gross-Gerau, Weather by CustomWeather, © 2015

Note: Actual official high and low records may vary slightly from our data, if they occured in-between our weather recording intervals... More about our weather records

Advertising

Gross-Gerau weather history for previous 24 hours

 ConditionsComfort  
Time TempWeatherWind HumidityBarometerVisibility
9:20 PM
Sun, May 24
66 °FPassing clouds.3 mph56%30.01 "HgN/A
8:50 PM66 °FSunny.3 mph56%30.01 "Hg10 mi
8:20 PM68 °FPartly sunny.2 mph49%30.01 "HgN/A
7:50 PM68 °FPartly sunny.3 mph49%30.01 "HgN/A
7:20 PM68 °FPartly sunny.3 mph46%30.01 "HgN/A
6:50 PM68 °FPartly sunny.3 mph46%30.01 "HgN/A
6:20 PM70 °FPartly sunny.2 mph46%30.01 "HgN/A
5:50 PM70 °FPartly sunny.3 mph43%30.04 "HgN/A
5:20 PM70 °FPartly sunny.3 mph46%30.04 "HgN/A
4:50 PM70 °FPartly sunny.5 mph50%30.04 "HgN/A
4:20 PM70 °FBroken clouds.5 mph46%30.04 "HgN/A
3:50 PM70 °FBroken clouds.6 mph43%30.04 "HgN/A
3:20 PM70 °FScattered clouds.7 mph43%30.04 "HgN/A
2:50 PM72 °FBroken clouds.7 mph44%30.07 "HgN/A
2:20 PM72 °FPartly sunny.5 mph44%30.07 "HgN/A
1:50 PM70 °FPartly sunny.5 mph46%30.07 "HgN/A
1:20 PM68 °FPartly sunny.3 mph53%30.07 "HgN/A
12:50 PM66 °FPartly sunny.5 mph56%30.09 "HgN/A
12:20 PM66 °FPartly sunny.5 mph56%30.09 "HgN/A
11:50 AM64 °FPartly sunny.3 mph60%30.09 "HgN/A
11:20 AM63 °FPartly sunny.6 mph64%30.09 "HgN/A
10:50 AM63 °FPartly sunny.3 mph64%30.09 "HgN/A
10:20 AM61 °FBroken clouds.6 mph68%30.09 "HgN/A
9:50 AM59 °FPartly sunny.8 mph72%30.09 "HgN/A
9:20 AM59 °FPartly sunny.9 mph72%30.09 "HgN/A
8:50 AM59 °FBroken clouds.8 mph72%30.09 "HgN/A
8:20 AM59 °FBroken clouds.9 mph72%30.09 "HgN/A
7:50 AM57 °FPassing clouds.10 mph77%30.09 "HgN/A
7:20 AM57 °FPassing clouds.8 mph77%30.09 "HgN/A
6:50 AM57 °FSunny.9 mph77%30.09 "Hg10 mi
6:20 AM57 °FClear.9 mph77%30.09 "Hg10 mi
5:50 AM57 °FClear.7 mph77%30.09 "Hg10 mi
5:20 AM57 °FClear.8 mph77%30.09 "Hg10 mi
4:50 AM57 °FClear.9 mph77%30.07 "Hg10 mi
4:20 AM59 °FClear.8 mph72%30.09 "Hg10 mi
3:50 AM59 °FPassing clouds.7 mph72%30.09 "HgN/A
3:20 AM59 °FClear.10 mph72%30.09 "Hg10 mi
2:50 AM59 °FClear.13 mph72%30.09 "Hg10 mi
2:20 AM59 °FClear.14 mph72%30.09 "Hg10 mi
1:50 AM61 °FClear.13 mph68%30.09 "Hg10 mi
1:20 AM61 °FClear.13 mph72%30.09 "Hg10 mi
12:50 AM61 °FClear.12 mph68%30.09 "Hg10 mi
12:20 AM63 °FClear.10 mph64%30.09 "Hg10 mi
11:50 PM
Sat, May 23
63 °FClear.12 mph64%30.09 "Hg10 mi
11:20 PM63 °FClear.9 mph59%30.09 "Hg10 mi
10:50 PM64 °FClear.10 mph56%30.09 "Hg10 mi
10:20 PM64 °FPassing clouds.7 mph56%30.09 "HgN/A
Weather by CustomWeather, © 2015

See weather overviewHow to use our weather pages